| time (UTC) | temp F | wind direction | speed MPH | gust MPH | rain 1hr in | rain 24hr in | rain mn in | humidity % | barometer mb |
| 20260906040050 | 87 | 179 | 4.0 | 6.0 | 0.00 | 0.00 | 0.00 | 78 | 1011.7 |
| 20260906035049 | 87 | 185 | 4.0 | 7.0 | 0.00 | 0.00 | 0.00 | 78 | 1011.8 |
| 20260906034549 | 87 | 153 | 4.0 | 7.0 | 0.00 | 0.00 | 0.00 | 78 | 1011.9 |
| 20260906034049 | 87 | 183 | 4.0 | 7.0 | 0.00 | 0.00 | 0.00 | 78 | 1011.9 |
| 20260906033549 | 87 | 163 | 3.0 | 6.0 | 0.00 | 0.00 | 0.00 | 78 | 1011.8 |
| 20260906033050 | 88 | 177 | 2.0 | 4.0 | 0.00 | 0.00 | 0.00 | 77 | 1011.8 |
| 20260906032550 | 88 | 198 | 2.0 | 4.0 | 0.00 | 0.00 | 0.00 | 77 | 1011.7 |
| 20260906032049 | 88 | 177 | 2.0 | 4.0 | 0.00 | 0.00 | 0.00 | 77 | 1011.7 |
| 20260906031050 | 88 | 179 | 2.0 | 5.0 | 0.00 | 0.00 | 0.00 | 77 | 1011.6 |
| 20260906030550 | 88 | 185 | 2.0 | 4.0 | 0.00 | 0.00 | 0.00 | 77 | 1011.4 |
| 20260906030051 | 88 | 101 | 2.0 | 5.0 | 0.00 | 0.00 | 0.00 | 78 | 1011.2 |
| 20260906025546 | 88 | 175 | 2.0 | 6.0 | 0.00 | 0.00 | 0.00 | 78 | 1011.2 |
| 20260906025049 | 88 | 155 | 2.0 | 6.0 | 0.00 | 0.00 | 0.00 | 76 | 1011.0 |
| 20260906024546 | 88 | 172 | 2.0 | 8.0 | 0.00 | 0.00 | 0.00 | 77 | 1010.8 |
| 20260906024049 | 88 | 152 | 3.0 | 8.0 | 0.00 | 0.00 | 0.00 | 76 | 1010.7 |
| 20260906023546 | 89 | 169 | 3.0 | 6.0 | 0.00 | 0.00 | 0.00 | 75 | 1010.5 |
| 20260906023048 | 89 | 170 | 3.0 | 6.0 | 0.00 | 0.00 | 0.00 | 75 | 1010.4 |
| 20260906022540 | 89 | 173 | 2.0 | 6.0 | 0.00 | 0.00 | 0.00 | 75 | 1010.3 |
| 20260906022038 | 89 | 148 | 2.0 | 6.0 | 0.00 | 0.00 | 0.00 | 74 | 1010.2 |
| 20260906021538 | 89 | 155 | 2.0 | 6.0 | 0.00 | 0.00 | 0.00 | 74 | 1010.1 |
| 20260906021029 | 89 | 149 | 3.0 | 6.0 | 0.00 | 0.00 | 0.00 | 74 | 1010.0 |
| 20260906020028 | 89 | 140 | 3.0 | 9.0 | 0.00 | 0.00 | 0.00 | 74 | 1009.8 |
| 20260906015529 | 89 | 94 | 3.0 | 6.0 | 0.00 | 0.00 | 0.00 | 74 | 1009.8 |
| 20260906015028 | 89 | 147 | 3.0 | 6.0 | 0.00 | 0.00 | 0.00 | 74 | 1009.8 |
| 20260906014528 | 89 | 131 | 3.0 | 8.0 | 0.00 | 0.00 | 0.00 | 74 | 1009.8 |
| 20260906014029 | 89 | 156 | 4.0 | 8.0 | 0.00 | 0.00 | 0.00 | 74 | 1009.8 |
| 20260906013529 | 89 | 88 | 4.0 | 8.0 | 0.00 | 0.00 | 0.00 | 73 | 1009.8 |
| 20260906013028 | 89 | 103 | 4.0 | 8.0 | 0.00 | 0.00 | 0.00 | 73 | 1009.7 |
| 20260906012529 | 89 | 107 | 4.0 | 10.0 | 0.00 | 0.00 | 0.00 | 73 | 1009.7 |
| 20260906011523 | 89 | 112 | 4.0 | 7.0 | 0.00 | 0.00 | 0.00 | 75 | 1009.6 |
| 20260906011023 | 90 | 119 | 3.0 | 7.0 | 0.00 | 0.00 | 0.00 | 71 | 1009.5 |
| 20260906010523 | 90 | 103 | 2.0 | 7.0 | 0.00 | 0.00 | 0.00 | 70 | 1009.6 |
| 20260906005011 | 90 | 83 | 3.0 | 9.0 | 0.00 | 0.00 | 0.00 | 69 | 1009.6 |
| 20260906004511 | 90 | 97 | 3.0 | 9.0 | 0.00 | 0.00 | 0.00 | 69 | 1009.5 |
| 20260906004012 | 90 | 121 | 3.0 | 9.0 | 0.00 | 0.00 | 0.00 | 69 | 1009.4 |
| 20260906003511 | 91 | 75 | 3.0 | 11.0 | 0.00 | 0.00 | 0.00 | 68 | 1009.3 |
| 20260906002512 | 91 | 117 | 4.0 | 8.0 | 0.00 | 0.00 | 0.00 | 68 | 1009.0 |
| 20260906002012 | 91 | 105 | 4.0 | 8.0 | 0.00 | 0.00 | 0.00 | 67 | 1008.9 |
| 20260906001512 | 91 | 108 | 4.0 | 9.0 | 0.00 | 0.00 | 0.00 | 66 | 1008.8 |
| 20260906001012 | 91 | 151 | 4.0 | 9.0 | 0.00 | 0.00 | 0.00 | 65 | 1008.8 |
| 20260906000509 | 92 | 122 | 4.0 | 11.0 | 0.00 | 0.00 | 0.00 | 65 | 1008.7 |
| 20260906000009 | 92 | 202 | 4.0 | 11.0 | 0.00 | 0.00 | 0.00 | 65 | 1008.6 |
| 20260905235509 | 93 | 130 | 4.0 | 10.0 | 0.00 | 0.00 | 0.00 | 62 | 1008.5 |
| 20260905235007 | 93 | 98 | 4.0 | 10.0 | 0.00 | 0.00 | 0.00 | 61 | 1008.4 |
| 20260905234507 | 93 | 150 | 4.0 | 10.0 | 0.00 | 0.00 | 0.00 | 61 | 1008.6 |
| 20260905233006 | 94 | 111 | 4.0 | 11.0 | 0.00 | 0.00 | 0.00 | 59 | 1008.6 |
| 20260905232506 | 94 | 141 | 4.0 | 11.0 | 0.00 | 0.00 | 0.00 | 58 | 1008.6 |
| 20260905232007 | 94 | 129 | 4.0 | 10.0 | 0.00 | 0.00 | 0.00 | 58 | 1008.5 |
| 20260905230509 | 95 | 108 | 5.0 | 10.0 | 0.00 | 0.00 | 0.00 | 56 | 1008.3 |
| 20260905230004 | 95 | 130 | 5.0 | 11.0 | 0.00 | 0.00 | 0.00 | 55 | 1008.2 |
| 20260905225504 | 95 | 139 | 5.0 | 11.0 | 0.00 | 0.00 | 0.00 | 54 | 1008.0 |
| 20260905224501 | 96 | 134 | 4.0 | 9.0 | 0.00 | 0.00 | 0.00 | 53 | 1007.9 |
| 20260905224001 | 96 | 89 | 4.0 | 9.0 | 0.00 | 0.00 | 0.00 | 53 | 1007.9 |
| 20260905223501 | 96 | 127 | 5.0 | 10.0 | 0.00 | 0.00 | 0.00 | 52 | 1007.9 |
| 20260905223002 | 96 | 149 | 6.0 | 11.0 | 0.00 | 0.00 | 0.00 | 52 | 1007.9 |
| 20260905222501 | 96 | 107 | 5.0 | 11.0 | 0.00 | 0.00 | 0.00 | 50 | 1007.9 |
| 20260905222002 | 96 | 145 | 5.0 | 12.0 | 0.00 | 0.00 | 0.00 | 50 | 1008.0 |
| 20260905221501 | 96 | 146 | 5.0 | 12.0 | 0.00 | 0.00 | 0.00 | 50 | 1008.1 |
| 20260905221002 | 96 | 136 | 6.0 | 11.0 | 0.00 | 0.00 | 0.00 | 49 | 1008.1 |
| 20260905220502 | 97 | 128 | 5.0 | 12.0 | 0.00 | 0.00 | 0.00 | 50 | 1008.0 |
| 20260905220002 | 97 | 88 | 4.0 | 12.0 | 0.00 | 0.00 | 0.00 | 50 | 1007.9 |
| 20260905215502 | 97 | 163 | 5.0 | 11.0 | 0.00 | 0.00 | 0.00 | 51 | 1008.0 |
| 20260905215002 | 97 | 102 | 5.0 | 12.0 | 0.00 | 0.00 | 0.00 | 49 | 1008.0 |
| 20260905214502 | 97 | 116 | 5.0 | 12.0 | 0.00 | 0.00 | 0.00 | 49 | 1007.9 |
| 20260905213459 | 97 | 132 | 5.0 | 13.0 | 0.00 | 0.00 | 0.00 | 49 | 1007.9 |
| 20260905212959 | 98 | 103 | 4.0 | 11.0 | 0.00 | 0.00 | 0.00 | 50 | 1007.9 |
| 20260905211957 | 97 | 153 | 5.0 | 12.0 | 0.00 | 0.00 | 0.00 | 52 | 1008.0 |
| 20260905211456 | 97 | 162 | 5.0 | 12.0 | 0.00 | 0.00 | 0.00 | 51 | 1008.1 |
| 20260905210957 | 98 | 129 | 5.0 | 11.0 | 0.00 | 0.00 | 0.00 | 51 | 1008.1 |
| 20260905210456 | 97 | 154 | 5.0 | 11.0 | 0.00 | 0.00 | 0.00 | 52 | 1008.1 |
| 20260905205957 | 97 | 193 | 5.0 | 12.0 | 0.00 | 0.00 | 0.00 | 51 | 1008.1 |
| 20260905205457 | 97 | 68 | 5.0 | 12.0 | 0.00 | 0.00 | 0.00 | 52 | 1008.2 |
| 20260905204958 | 97 | 98 | 4.0 | 12.0 | 0.00 | 0.00 | 0.00 | 52 | 1008.3 |
| 20260905204456 | 97 | 28 | 4.0 | 11.0 | 0.00 | 0.00 | 0.00 | 54 | 1008.4 |
| 20260905203957 | 98 | 110 | 5.0 | 11.0 | 0.00 | 0.00 | 0.00 | 52 | 1008.5 |
| 20260905203456 | 97 | 142 | 4.0 | 10.0 | 0.00 | 0.00 | 0.00 | 52 | 1008.6 |
| 20260905202957 | 97 | 190 | 4.0 | 9.0 | 0.00 | 0.00 | 0.00 | 54 | 1008.7 |
| 20260905202455 | 97 | 128 | 5.0 | 10.0 | 0.00 | 0.00 | 0.00 | 53 | 1008.9 |
| 20260905201957 | 97 | 133 | 5.0 | 11.0 | 0.00 | 0.00 | 0.00 | 54 | 1008.9 |
| 20260905201455 | 97 | 106 | 5.0 | 11.0 | 0.00 | 0.00 | 0.00 | 54 | 1008.9 |
| 20260905200956 | 97 | 101 | 5.0 | 9.0 | 0.00 | 0.00 | 0.00 | 54 | 1009.0 |
| 20260905200455 | 97 | 145 | 5.0 | 9.0 | 0.00 | 0.00 | 0.00 | 54 | 1009.1 |
| 20260905195957 | 98 | 126 | 4.0 | 9.0 | 0.00 | 0.00 | 0.00 | 54 | 1009.2 |
| 20260905195456 | 99 | 182 | 4.0 | 9.0 | 0.00 | 0.00 | 0.00 | 49 | 1009.2 |
| 20260905194957 | 98 | 118 | 4.0 | 9.0 | 0.00 | 0.00 | 0.00 | 51 | 1009.2 |
| 20260905194455 | 98 | 145 | 3.0 | 8.0 | 0.00 | 0.00 | 0.00 | 51 | 1009.3 |
| 20260905193957 | 98 | 128 | 4.0 | 12.0 | 0.00 | 0.00 | 0.00 | 51 | 1009.3 |
| 20260905193456 | 99 | 115 | 4.0 | 12.0 | 0.00 | 0.00 | 0.00 | 51 | 1009.4 |
| 20260905192957 | 100 | 104 | 3.0 | 9.0 | 0.00 | 0.00 | 0.00 | 48 | 1009.4 |
| 20260905192456 | 100 | 131 | 4.0 | 10.0 | 0.00 | 0.00 | 0.00 | 47 | 1009.6 |
| 20260905191957 | 99 | 186 | 4.0 | 10.0 | 0.00 | 0.00 | 0.00 | 48 | 1009.6 |
| 20260905191455 | 100 | 131 | 4.0 | 11.0 | 0.00 | 0.00 | 0.00 | 50 | 1009.6 |
| 20260905190957 | 99 | 163 | 4.0 | 11.0 | 0.00 | 0.00 | 0.00 | 47 | 1009.7 |
| 20260905190456 | 98 | 116 | 5.0 | 10.0 | 0.00 | 0.00 | 0.00 | 47 | 1009.7 |
| 20260905185955 | 98 | 147 | 4.0 | 8.0 | 0.00 | 0.00 | 0.00 | 47 | 1009.6 |
| 20260905184956 | 97 | 102 | 3.0 | 7.0 | 0.00 | 0.00 | 0.00 | 49 | 1009.8 |
| 20260905184455 | 97 | 166 | 3.0 | 7.0 | 0.00 | 0.00 | 0.00 | 50 | 1009.9 |
| 20260905183957 | 98 | 47 | 3.0 | 9.0 | 0.00 | 0.00 | 0.00 | 50 | 1010.0 |
| 20260905183457 | 97 | 102 | 3.0 | 9.0 | 0.00 | 0.00 | 0.00 | 50 | 1010.1 |
| 20260905182957 | 98 | 126 | 2.0 | 8.0 | 0.00 | 0.00 | 0.00 | 50 | 1010.1 |
| 20260905182458 | 97 | 179 | 4.0 | 9.0 | 0.00 | 0.00 | 0.00 | 51 | 1010.2 |
| 20260905181957 | 97 | 132 | 3.0 | 9.0 | 0.00 | 0.00 | 0.00 | 52 | 1010.4 |
| 20260905181457 | 97 | 87 | 3.0 | 7.0 | 0.00 | 0.00 | 0.00 | 51 | 1010.5 |
| 20260905180457 | 96 | 95 | 3.0 | 8.0 | 0.00 | 0.00 | 0.00 | 51 | 1010.6 |
| 20260905175958 | 96 | 69 | 4.0 | 9.0 | 0.00 | 0.00 | 0.00 | 52 | 1010.6 |
| 20260905175458 | 95 | 150 | 3.0 | 9.0 | 0.00 | 0.00 | 0.00 | 53 | 1010.8 |
| 20260905174957 | 95 | 175 | 3.0 | 7.0 | 0.00 | 0.00 | 0.00 | 54 | 1010.8 |
| 20260905174455 | 95 | 123 | 4.0 | 7.0 | 0.00 | 0.00 | 0.00 | 55 | 1011.0 |
| 20260905173955 | 96 | 97 | 4.0 | 11.0 | 0.00 | 0.00 | 0.00 | 54 | 1011.1 |
| 20260905173455 | 96 | 90 | 4.0 | 11.0 | 0.00 | 0.00 | 0.00 | 53 | 1011.1 |
| 20260905172955 | 96 | 119 | 3.0 | 11.0 | 0.00 | 0.00 | 0.00 | 51 | 1011.1 |
| 20260905172455 | 96 | 234 | 3.0 | 10.0 | 0.00 | 0.00 | 0.00 | 50 | 1011.1 |
| 20260905171954 | 96 | 171 | 3.0 | 8.0 | 0.00 | 0.00 | 0.00 | 51 | 1011.2 |
| 20260905171455 | 96 | 154 | 3.0 | 8.0 | 0.00 | 0.00 | 0.00 | 53 | 1011.2 |
| 20260905170955 | 96 | 127 | 3.0 | 8.0 | 0.00 | 0.00 | 0.00 | 52 | 1011.3 |
| 20260905170507 | 96 | 171 | 2.0 | 7.0 | 0.00 | 0.00 | 0.00 | 51 | 1011.3 |
| 20260905165455 | 94 | 147 | 3.0 | 7.0 | 0.00 | 0.00 | 0.00 | 54 | 1011.4 |
| 20260905164955 | 94 | 183 | 3.0 | 11.0 | 0.00 | 0.00 | 0.00 | 56 | 1011.5 |
| 20260905164455 | 94 | 164 | 4.0 | 11.0 | 0.00 | 0.00 | 0.00 | 54 | 1011.6 |
| 20260905163956 | 94 | 178 | 4.0 | 11.0 | 0.00 | 0.00 | 0.00 | 54 | 1011.5 |
| 20260905163455 | 94 | 169 | 3.0 | 11.0 | 0.00 | 0.00 | 0.00 | 56 | 1011.5 |
| 20260905162951 | 94 | 128 | 4.0 | 11.0 | 0.00 | 0.00 | 0.00 | 56 | 1011.5 |
| 20260905162451 | 93 | 97 | 3.0 | 8.0 | 0.00 | 0.00 | 0.00 | 55 | 1011.5 |
| 20260905161951 | 92 | 141 | 3.0 | 9.0 | 0.00 | 0.00 | 0.00 | 59 | 1011.6 |
| 20260905161452 | 92 | 130 | 3.0 | 9.0 | 0.00 | 0.00 | 0.00 | 58 | 1011.7 |
| 20260905160952 | 92 | 180 | 3.0 | 6.0 | 0.00 | 0.00 | 0.00 | 61 | 1011.8 |
| 20260905160453 | 92 | 143 | 3.0 | 8.0 | 0.00 | 0.00 | 0.00 | 61 | 1011.8 |
| 20260905155951 | 92 | 189 | 3.0 | 8.0 | 0.00 | 0.00 | 0.00 | 60 | 1011.8 |
| 20260905154952 | 92 | 169 | 4.0 | 9.0 | 0.00 | 0.00 | 0.00 | 60 | 1011.8 |
| 20260905154453 | 92 | 180 | 4.0 | 9.0 | 0.00 | 0.00 | 0.00 | 62 | 1011.9 |
| 20260905153453 | 91 | 243 | 3.0 | 8.0 | 0.00 | 0.00 | 0.00 | 64 | 1011.9 |
| 20260905152951 | 91 | 149 | 3.0 | 8.0 | 0.00 | 0.00 | 0.00 | 66 | 1012.0 |
| 20260905152448 | 91 | 137 | 3.0 | 10.0 | 0.00 | 0.00 | 0.00 | 67 | 1012.0 |
| 20260905151948 | 90 | 169 | 4.0 | 10.0 | 0.00 | 0.00 | 0.00 | 67 | 1012.0 |
| 20260905151445 | 89 | 186 | 3.0 | 10.0 | 0.00 | 0.00 | 0.00 | 70 | 1011.9 |
| 20260905150948 | 89 | 92 | 4.0 | 11.0 | 0.00 | 0.00 | 0.00 | 70 | 1011.9 |
| 20260905150443 | 89 | 175 | 5.0 | 11.0 | 0.00 | 0.00 | 0.00 | 72 | 1012.0 |
| 20260905145943 | 89 | 191 | 4.0 | 9.0 | 0.00 | 0.00 | 0.00 | 73 | 1012.0 |
| 20260905145445 | 89 | 211 | 3.0 | 7.0 | 0.00 | 0.00 | 0.00 | 71 | 1012.0 |
| 20260905144943 | 89 | 136 | 4.0 | 10.0 | 0.00 | 0.00 | 0.00 | 74 | 1012.0 |
| 20260905144444 | 88 | 85 | 4.0 | 11.0 | 0.00 | 0.00 | 0.00 | 75 | 1012.0 |
| 20260905143943 | 87 | 181 | 5.0 | 11.0 | 0.00 | 0.00 | 0.00 | 77 | 1012.0 |
| 20260905143445 | 87 | 187 | 5.0 | 12.0 | 0.00 | 0.00 | 0.00 | 78 | 1012.0 |
| 20260905142944 | 87 | 146 | 4.0 | 12.0 | 0.00 | 0.00 | 0.00 | 79 | 1012.0 |
| 20260905142445 | 87 | 173 | 3.0 | 12.0 | 0.00 | 0.00 | 0.00 | 78 | 1012.0 |
| 20260905141444 | 87 | 143 | 3.0 | 7.0 | 0.00 | 0.00 | 0.00 | 80 | 1011.9 |
| 20260905140941 | 87 | 177 | 3.0 | 7.0 | 0.00 | 0.00 | 0.00 | 81 | 1011.9 |
| 20260905140441 | 87 | 169 | 2.0 | 6.0 | 0.00 | 0.00 | 0.00 | 81 | 1011.7 |
| 20260905135935 | 87 | 95 | 2.0 | 6.0 | 0.00 | 0.00 | 0.00 | 81 | 1011.7 |
| 20260905135436 | 86 | 103 | 2.0 | 6.0 | 0.00 | 0.00 | 0.00 | 81 | 1011.6 |
| 20260905134932 | 86 | 111 | 2.0 | 4.0 | 0.00 | 0.00 | 0.00 | 81 | 1011.6 |
| 20260905134436 | 86 | 143 | 2.0 | 4.0 | 0.00 | 0.00 | 0.00 | 82 | 1011.6 |
| 20260905133933 | 85 | 152 | 2.0 | 4.0 | 0.00 | 0.00 | 0.00 | 83 | 1011.6 |
| 20260905133437 | 85 | 125 | 2.0 | 4.0 | 0.00 | 0.00 | 0.00 | 84 | 1011.5 |
| 20260905132933 | 84 | 135 | 2.0 | 4.0 | 0.00 | 0.00 | 0.00 | 86 | 1011.4 |
| 20260905132436 | 83 | 156 | 2.0 | 4.0 | 0.00 | 0.00 | 0.00 | 87 | 1011.4 |
| 20260905131437 | 82 | 97 | 3.0 | 4.0 | 0.00 | 0.00 | 0.00 | 89 | 1011.2 |
| 20260905130933 | 82 | 103 | 2.0 | 4.0 | 0.00 | 0.00 | 0.00 | 89 | 1011.1 |
| 20260905125932 | 82 | 163 | 2.0 | 3.0 | 0.00 | 0.00 | 0.00 | 89 | 1011.0 |
| 20260905125422 | 82 | 101 | 2.0 | 3.0 | 0.00 | 0.00 | 0.00 | 89 | 1011.0 |
| 20260905124918 | 82 | 136 | 2.0 | 3.0 | 0.00 | 0.00 | 0.00 | 89 | 1010.9 |
| 20260905123903 | 82 | 171 | 2.0 | 3.0 | 0.00 | 0.00 | 0.00 | 89 | 1010.7 |
| 20260905122903 | 82 | 137 | 2.0 | 4.0 | 0.00 | 0.00 | 0.00 | 90 | 1010.7 |
| 20260905122408 | 82 | 154 | 2.0 | 4.0 | 0.00 | 0.00 | 0.00 | 90 | 1010.6 |
| 20260905121903 | 82 | 159 | 2.0 | 4.0 | 0.00 | 0.00 | 0.00 | 90 | 1010.5 |
| 20260905121408 | 82 | 153 | 2.0 | 4.0 | 0.00 | 0.00 | 0.00 | 90 | 1010.5 |
| 20260905120904 | 82 | 161 | 2.0 | 3.0 | 0.00 | 0.00 | 0.00 | 90 | 1010.5 |
| 20260905115903 | 82 | 168 | 2.0 | 3.0 | 0.00 | 0.00 | 0.00 | 89 | 1010.4 |
| 20260905115406 | 82 | 300 | 2.0 | 3.0 | 0.00 | 0.00 | 0.00 | 89 | 1010.3 |
| 20260905114902 | 82 | 171 | 3.0 | 4.0 | 0.00 | 0.00 | 0.00 | 89 | 1010.2 |
| 20260905114406 | 82 | 166 | 3.0 | 4.0 | 0.00 | 0.00 | 0.00 | 89 | 1010.2 |
| 20260905113902 | 82 | 155 | 3.0 | 4.0 | 0.00 | 0.00 | 0.00 | 89 | 1010.2 |
| 20260905112849 | 82 | 135 | 3.0 | 4.0 | 0.00 | 0.00 | 0.00 | 89 | 1010.1 |
| 20260905111850 | 82 | 156 | 3.0 | 4.0 | 0.00 | 0.00 | 0.00 | 89 | 1010.1 |
| 20260905110850 | 82 | 165 | 3.0 | 4.0 | 0.00 | 0.00 | 0.00 | 90 | 1010.2 |
| 20260905110349 | 82 | 137 | 3.0 | 4.0 | 0.00 | 0.00 | 0.00 | 90 | 1010.2 |
| 20260905105849 | 82 | 152 | 3.0 | 4.0 | 0.00 | 0.00 | 0.00 | 90 | 1010.2 |
| 20260905104850 | 82 | 155 | 2.0 | 4.0 | 0.00 | 0.00 | 0.00 | 90 | 1010.4 |
| 20260905104350 | 82 | 112 | 3.0 | 4.0 | 0.00 | 0.00 | 0.00 | 90 | 1010.3 |
| 20260905103850 | 82 | 133 | 3.0 | 4.0 | 0.00 | 0.00 | 0.00 | 90 | 1010.4 |
| 20260905103340 | 82 | 149 | 3.0 | 4.0 | 0.00 | 0.00 | 0.00 | 90 | 1010.3 |
| 20260905102824 | 82 | 143 | 3.0 | 4.0 | 0.00 | 0.00 | 0.00 | 90 | 1010.4 |
| 20260905102322 | 81 | 117 | 2.0 | 4.0 | 0.00 | 0.00 | 0.00 | 90 | 1010.3 |
| 20260905101821 | 81 | 134 | 2.0 | 3.0 | 0.00 | 0.00 | 0.00 | 90 | 1010.3 |
| 20260905101322 | 81 | 154 | 2.0 | 3.0 | 0.00 | 0.00 | 0.00 | 90 | 1010.2 |
| 20260905100822 | 82 | 153 | 2.0 | 4.0 | 0.00 | 0.00 | 0.00 | 90 | 1010.2 |
| 20260905100322 | 82 | 159 | 2.0 | 4.0 | 0.00 | 0.00 | 0.00 | 90 | 1010.2 |
| 20260905095822 | 82 | 164 | 2.0 | 3.0 | 0.00 | 0.00 | 0.00 | 90 | 1010.2 |
| 20260905094822 | 82 | 191 | 2.0 | 4.0 | 0.00 | 0.00 | 0.00 | 90 | 1010.2 |
| 20260905094323 | 82 | 175 | 3.0 | 4.0 | 0.00 | 0.00 | 0.00 | 90 | 1010.2 |
| 20260905093822 | 82 | 154 | 3.0 | 3.0 | 0.00 | 0.00 | 0.00 | 90 | 1010.2 |
| 20260905093323 | 82 | 146 | 3.0 | 4.0 | 0.00 | 0.00 | 0.00 | 90 | 1010.3 |
| 20260905092822 | 82 | 169 | 2.0 | 4.0 | 0.00 | 0.00 | 0.00 | 90 | 1010.4 |
| 20260905092323 | 82 | 109 | 2.0 | 3.0 | 0.00 | 0.00 | 0.00 | 90 | 1010.5 |
| 20260905091810 | 82 | 149 | 2.0 | 3.0 | 0.00 | 0.00 | 0.00 | 90 | 1010.5 |
| 20260905091308 | 82 | 142 | 2.0 | 3.0 | 0.00 | 0.00 | 0.00 | 90 | 1010.5 |
| 20260905090808 | 82 | 143 | 2.0 | 3.0 | 0.00 | 0.00 | 0.00 | 90 | 1010.5 |
| 20260905090308 | 82 | 161 | 2.0 | 3.0 | 0.00 | 0.00 | 0.00 | 90 | 1010.5 |
| 20260905085808 | 82 | 186 | 2.0 | 3.0 | 0.00 | 0.00 | 0.00 | 90 | 1010.5 |
| 20260905085308 | 82 | 181 | 2.0 | 2.0 | 0.00 | 0.00 | 0.00 | 89 | 1010.4 |
| 20260905084808 | 82 | 168 | 2.0 | 2.0 | 0.00 | 0.00 | 0.00 | 89 | 1010.5 |
| 20260905083808 | 82 | 170 | 2.0 | 2.0 | 0.00 | 0.00 | 0.00 | 89 | 1010.5 |
| 20260905083309 | 82 | 196 | 2.0 | 2.0 | 0.00 | 0.00 | 0.00 | 89 | 1010.4 |
| 20260905082809 | 82 | 160 | 2.0 | 2.0 | 0.00 | 0.00 | 0.00 | 89 | 1010.5 |
| 20260905082307 | 82 | 159 | 2.0 | 2.0 | 0.00 | 0.00 | 0.00 | 89 | 1010.4 |
| 20260905081807 | 82 | 162 | 2.0 | 2.0 | 0.00 | 0.00 | 0.00 | 88 | 1010.5 |
| 20260905081307 | 82 | 167 | 2.0 | 2.0 | 0.00 | 0.00 | 0.00 | 89 | 1010.6 |
| 20260905080806 | 82 | 159 | 2.0 | 2.0 | 0.00 | 0.00 | 0.00 | 89 | 1010.6 |
| 20260905080307 | 82 | 198 | 2.0 | 2.0 | 0.00 | 0.00 | 0.00 | 89 | 1010.6 |
| 20260905075753 | 82 | 174 | 2.0 | 3.0 | 0.00 | 0.00 | 0.00 | 89 | 1010.6 |
| 20260905075253 | 82 | 158 | 2.0 | 3.0 | 0.00 | 0.00 | 0.00 | 89 | 1010.6 |
| 20260905074754 | 83 | 166 | 2.0 | 4.0 | 0.00 | 0.00 | 0.00 | 89 | 1010.6 |
| 20260905074254 | 83 | 169 | 2.0 | 4.0 | 0.00 | 0.00 | 0.00 | 89 | 1010.7 |
| 20260905072754 | 83 | 208 | 2.0 | 3.0 | 0.00 | 0.00 | 0.00 | 89 | 1010.8 |
| 20260905072255 | 83 | 148 | 2.0 | 3.0 | 0.00 | 0.00 | 0.00 | 89 | 1010.9 |
| 20260905071755 | 83 | 165 | 2.0 | 3.0 | 0.00 | 0.00 | 0.00 | 89 | 1011.0 |
| 20260905071255 | 83 | 164 | 2.0 | 3.0 | 0.00 | 0.00 | 0.00 | 89 | 1010.9 |
| 20260905070754 | 83 | 133 | 2.0 | 3.0 | 0.00 | 0.00 | 0.00 | 88 | 1011.0 |
| 20260905070254 | 83 | 171 | 2.0 | 4.0 | 0.00 | 0.00 | 0.00 | 88 | 1011.0 |
| 20260905065754 | 83 | 175 | 2.0 | 4.0 | 0.00 | 0.00 | 0.00 | 88 | 1011.0 |
| 20260905065240 | 83 | 146 | 2.0 | 3.0 | 0.00 | 0.00 | 0.00 | 88 | 1011.0 |
| 20260905064726 | 83 | 157 | 2.0 | 3.0 | 0.00 | 0.00 | 0.00 | 88 | 1011.0 |
| 20260905064227 | 83 | 126 | 2.0 | 3.0 | 0.00 | 0.00 | 0.00 | 88 | 1011.0 |
| 20260905063727 | 83 | 168 | 2.0 | 3.0 | 0.00 | 0.00 | 0.00 | 88 | 1011.0 |
| 20260905063226 | 83 | 173 | 2.0 | 3.0 | 0.00 | 0.00 | 0.00 | 88 | 1011.1 |
| 20260905062225 | 83 | 172 | 2.0 | 3.0 | 0.00 | 0.00 | 0.00 | 87 | 1011.1 |
| 20260905061727 | 83 | 183 | 2.0 | 3.0 | 0.00 | 0.00 | 0.00 | 87 | 1011.0 |
| 20260905061225 | 83 | 149 | 2.0 | 3.0 | 0.00 | 0.00 | 0.00 | 87 | 1011.1 |
| 20260905060728 | 84 | 151 | 2.0 | 3.0 | 0.00 | 0.00 | 0.00 | 87 | 1011.1 |
| 20260905060225 | 84 | 141 | 2.0 | 3.0 | 0.00 | 0.00 | 0.00 | 87 | 1011.1 |
| 20260905054229 | 84 | 167 | 2.0 | 4.0 | 0.00 | 0.00 | 0.00 | 86 | 1011.0 |
| 20260905053712 | 84 | 132 | 2.0 | 4.0 | 0.00 | 0.00 | 0.00 | 86 | 1011.1 |
| 20260905053215 | 84 | 115 | 2.0 | 4.0 | 0.00 | 0.00 | 0.00 | 86 | 1011.2 |
| 20260905052216 | 84 | 121 | 2.0 | 3.0 | 0.00 | 0.00 | 0.00 | 86 | 1011.3 |
| 20260905051215 | 84 | 107 | 2.0 | 3.0 | 0.00 | 0.00 | 0.00 | 85 | 1011.3 |
| 20260905050713 | 84 | 135 | 2.0 | 3.0 | 0.00 | 0.00 | 0.00 | 85 | 1011.3 |
| 20260905050215 | 84 | 131 | 2.0 | 3.0 | 0.00 | 0.00 | 0.00 | 85 | 1011.2 |
| 20260905045713 | 85 | 134 | 2.0 | 4.0 | 0.00 | 0.00 | 0.00 | 85 | 1011.3 |
| 20260905044711 | 85 | 146 | 2.0 | 4.0 | 0.00 | 0.00 | 0.00 | 84 | 1011.3 |
| 20260905044210 | 85 | 168 | 2.0 | 6.0 | 0.00 | 0.00 | 0.00 | 84 | 1011.3 |
| 20260905043711 | 85 | 132 | 2.0 | 6.0 | 0.00 | 0.00 | 0.00 | 84 | 1011.3 |
| 20260905043215 | 85 | 155 | 2.0 | 4.0 | 0.00 | 0.00 | 0.00 | 84 | 1011.3 |
| 20260905042711 | 85 | 160 | 2.0 | 4.0 | 0.00 | 0.00 | 0.00 | 84 | 1011.4 |
| 20260905042210 | 85 | 153 | 2.0 | 6.0 | 0.00 | 0.00 | 0.00 | 83 | 1011.5 |
| 20260905041210 | 85 | 130 | 2.0 | 4.0 | 0.00 | 0.00 | 0.00 | 83 | 1011.5 |